Hourly Weather Roundup
Issued by NWS Central Illinois

Home | Current Version | Previous Version | Text Only | Print | Product List | Glossary On
Versions: 1 2 3 4 5 6 7 8 9 10 11 12 13 14 15 16 17 18 19 20 21 22 23 24 25 26 27 28 29 30 31 32 33 34 35 36 37 38 39 40 41 42 43 44 45 46 47 48 49 50
000
NZUS43 KILX 250510
HWRILX

AREA WEATHER ROUNDUP
NATIONAL WEATHER SERVICE, LINCOLN IL
1200 AM CDT SAT APR 25 2015


CITY           SKY/WX    TMP DP  RH WIND       PRES   REMARKS
BLOOMINGTON    CLOUDY    54  37  52 SE10      29.82F
CHAMPAIGN      LGT RAIN  52  42  69 E8        29.82F
DECATUR        CLOUDY    56  37  49 SE9       29.78F
EFFINGHAM      CLOUDY    56  36  47 E8        29.80F
FLORA          CLOUDY    55  42  62 SE8       29.81S
GALESBURG      CLOUDY    52  38  59 E10       29.74F
JACKSONVILLE   CLOUDY    56  45  65 SE7       29.74F
LACON          CLOUDY    48  38  70 E14G21    29.80F
LAWRENCEVILLE  CLOUDY    56  41  57 SE7       29.83F
LITCHFIELD     CLOUDY    53  42  65 SE10      29.75F
$$


CITY           SKY/WX    TMP DP  RH WIND       PRES   REMARKS
LINCOLN        CLOUDY    55  38  53 E6        29.77F
MACOMB         CLOUDY    56  40  54 SE10      29.75F
MATTOON        CLOUDY    56  37  49 S9        29.79F
MT CARMEL AP   CLOUDY    57  39  51 SE7       29.82F
OLNEY-NOBLE AP CLOUDY    54  41  62 SE8       29.80F
PARIS          DRIZZLE   53  42  67 E3        29.83F
PEORIA         CLOUDY    57  36  45 SE8       29.77F
PONTIAC        CLOUDY    47  37  68 NE16      29.84S
RANTOUL        CLOUDY    55  40  57 E6        29.83F
ROBINSON       CLOUDY    55  40  58 SE7       29.83F
SPRINGFIELD    CLOUDY    56  42  59 S14       29.76F
TAYLORVILLE    CLOUDY    54  37  54 SE8       29.76F
$$

...REGIONAL REPORTS...


CITY           SKY/WX    TMP DP  RH WIND       PRES   REMARKS
CHICAGO O`HARE CLOUDY    41  36  82 NE13      29.91F WCI  34
KANKAKEE       CLOUDY    45  38  75 NE10      29.86F
MOLINE         CLOUDY    47  39  74 E15       29.78F
MOUNT VERNON   CLOUDY    55  39  54 E3        29.80S
PITTSFIELD     CLOUDY    56  47  71 SE10      29.73S
QUINCY         HVY RAIN  54  48  80 SE9       29.70F
ROCKFORD       CLOUDY    42  35  76 E10G21    29.92R
$$


CITY           SKY/WX    TMP DP  RH WIND       PRES   REMARKS
BURLINGTON     MOCLDY    55  37  50 E10       29.70F
CEDAR RAPIDS   CLOUDY    44  32  62 E13       29.73R
DES MOINES     CLOUDY    50  44  80 E17       29.63F
KIRKSVILLE     PTCLDY    55  50  83 SE13      29.63F
OTTUMWA        CLOUDY    51  46  83 E14       29.65F
ST LOUIS       CLOUDY    56  44  64 SE13      29.73F
$$


CITY           SKY/WX    TMP DP  RH WIND       PRES   REMARKS
TERRE HAUTE    CLOUDY    57  36  45 S7        29.83F
EVANSVILLE     CLOUDY    57  41  55 E7        29.82F
INDIANAPOLIS   LGT RAIN  54  33  45 S7        29.86R
LAFAYETTE      CLOUDY    52  38  58 E7        29.85F
MADISON        CLOUDY    40  34  79 E10       29.93S WCI  33
MILWAUKEE      CLOUDY    39  33  79 NE6       29.98R WCI  35
$$




USA.gov is the U.S. government's official web portal to all federal, state and local government web resources and services.